Hourly Data Report for October 31, 2002

SHERBROOKE A
QUEBEC

45°26'00.000" N
71°41'00.000" W
241.40 m
7028124
71610
YSC

Download Data

Hourly Data (October 2002)
Hourly Data Report for October 31, 2002
TIME
LST
Temp Definition
°C
Dew Point Definition
°C
Rel Hum Definition
%
Precip. Amount Definition
mm

Wind Dir Definition
10's deg

Wind Spd Definition
km/h
Visibility Definition
km
Stn Press Definition
kPa
Hmdx Definition


Wind Chill Definition


Weather Definition


00:00 -9.2 -10.8 88   12 4 15.0 98.72   -11  
01:00 -9.2 -10.7 89     0 15.0 98.69      
02:00 -9.9 -11.5 88     0 15.0 98.68      
03:00 -9.1 -10.6 89   9 4 15.0 98.65   -11  
04:00 -9.1 -11.0 86   12 4 15.0 98.64   -11  
05:00 -9.9 -11.5 88   8 4 15.0 98.67   -12  
06:00 -9.8 -11.4 88   10 4 15.0 98.68   -12  
07:00 -8.4 -9.9 89   12 4 15.0 98.72   -11  
08:00 -4.7 -6.7 86     0 24.1 98.74     Mainly Clear
09:00 -2.2 -6.1 75   17 6 24.1 98.73   -5 Mostly Cloudy
10:00 -0.5 -5.4 69   20 6 24.1 98.67   -3 Mostly Cloudy
11:00 1.6 -6.3 56   19 9 24.1 98.62     Mostly Cloudy
12:00 2.4 -5.7 55   25 11 24.1 98.54     Mostly Cloudy
13:00 3.9 -5.3 51   26 9 24.1 98.48     Mostly Cloudy
14:00 4.2 -7.6 42   25 11 24.1 98.44     Mostly Cloudy
15:00 3.4 -8.0 43   26 6 24.1 98.41     Mostly Cloudy
16:00 2.9 -7.7 46   24 4 24.1 98.43     Mostly Cloudy
17:00 2.5 -8.5 44   26 13 24.1 98.46     Cloudy
18:00 1.8 -8.1 48   25 11 15.0 98.46      
19:00 1.5 -7.2 52   23 9 15.0 98.46      
20:00 1.8 -5.5 58   25 11 15.0 98.45     Snow
21:00 1.4 -4.9 63   22 9 15.0 98.43     Snow
22:00 0.8 -3.9 71   23 7 15.0 98.40     Snow
23:00 0.3 -3.7 74   18 6 15.0 98.36      

Notes on Data Quality.

Legend

  • E = Estimated
  • M = Missing
  • NA = Not Available*
  • [empty] = Indicates an unobserved value
Date modified: